Location: Falniów
(50.3639°N, 19.9642°E)
Time: 09:09:09
(UTC+00:00)

Cosmos 1867 - Pass Details

Date: 18 January 2026
Orbit: 777 x 797 km, 65.0° (Epoch: 15 February)

Event Time Altitude Azimuth Distance (km) Brightness Sun altitude
Exits shadow 05:29:57 - 324° (NW) 2,623 5.8 -9.7°
Reaches altitude 10° 05:30:37 10° 326° (NW) 2,378 5.6 -9.6°
Maximum altitude 05:35:55 48° 40° (NE) 1,031 4.3 -8.8°
Drops below altitude 10° 05:41:11 10° 115° (ESE) 2,364 7.8 -8.0°
Sets 05:43:41 0° 121° (ESE) 3,289 9.0 -7.6°
